Weather in Grand Forks

United States     47°55′24″N   97°01′55″W
temp.,
°C
wind,
m/s
gust,
m/s
humid.,
%
clouds,
%
prec.,
mm/h
press.,
hPa
HPBL,
m
25 may, wed
wed2501:00+11se3373100 0.0 102036
04:00+11se3579100 0.0 102068
07:00+11se2581100 0.0 1019135
10:00+14ese3773100 0.0 1018353
13:00+18sse5654100 0.1 10161346
16:00+17sse455781 0.3 10161389
19:00+16ese44605 0.3 10141081
22:00+10se48820 0.0 1014170
26 may, thu
thu2601:00+8se35901 0.0 1014124
04:00+7sse23920 0.0 101364
07:00+8sse23890 0.0 1014128
10:00+13sse33705 0.0 1013621
13:00+17sse335914 0.0 1011877
16:00+19s345645 0.0 10111228
19:00+19sse44605 0.0 1010985
22:00+14sse348078 0.0 101150
27 may, fri
fri2701:00+13ssw488570 0.4 1011140
04:00+12sse47911 0.0 1011125
07:00+12s378960 0.0 1011185
10:00+18ssw347178 0.0 1010479
13:00+23wsw225215 0.0 10091233
16:00+25wnw1140100 0.0 10081904
19:00+24e2247100 0.0 1006324
22:00+19se4870100 0.0 1005127
28 may, sat
sat2801:00+17s3774100 0.0 1005181
04:00+16s41177100 0.4 1002465
07:00+14se51197100 3.5 1000458
10:00+16se7986100 0.5 1000603
13:00+16sse228598 0.5 1000544
16:00+20se3373100 0.1 998862
19:00+19sse2381100 0.1 998302
22:00+17ese1190100 0.0 99812
29 may, sun
sun2901:00+15e369673 0.0 997144
04:00+14e369690 0.0 998137
07:00+14nne3396100 0.0 998159
10:00+19ene4581100 0.0 997436
13:00+22e4567100 0.0 9971045
16:00+22ene6775100 0.2 995889
19:00+20ene6108855 0.3 996552
22:00+18e61295100 1.9 995486